Lid_Strength_Index
5 5 4 3 4 3 2 2 0 0 0 0 -0 0 -0 -0 -0 -1 0 1 1 -0 -1 -2 -2 -2 -1 -1 -1 -1 -1 -1 -1 -1 -1 -1 -1 -1 -1 -1 -1 -1 -1
6 6 5 5 5 4 4 3 3 2 1 1 1 0 0 1 0 -0 -1 -1 1 1 -0 -1 -2 -2 -2 -1 -1 -1 -1 -1 -1 -1 -1 -1 -1 -1 -1 -1 -1 -1 -1
6 6 6 6 5 5 5 4 4 3 3 0 1 1 0 -0 -0 0 0 0 -1 1 0 -0 -1 -0 -1 -1 -1 -1 -1 -1 -1 -1 -1 -1 -1 -1 -1 -1 -1 -1 -1
5 6 6 6 6 5 5 5 5 4 4 3 1 1 1 0 0 1 -0 0 -0 -1 1 0 -0 -0 -1 -1 -1 -1 -1 -1 -1 -1 -1 -1 -1 -1 -1 -1 -1 -1 -1
7 7 7 7 7 7 6 5 5 5 5 4 3 2 1 1 0 0 0 1 1 0 0 1 0 -0 -0 -1 -1 -1 -1 -1 -1 -1 -1 -1 -1 -1 -1 -1 -1 -1 -1
9 10 9 9 8 8 8 8 8 7 5 5 3 3 3 2 0 1 1 0 1 2 0 0 0 1 1 0 -0 -1 -1 -1 -1 -1 -1 -1 -1 -1 -1 -1 -1 -1 -1
10 10 10 10 9 9 9 9 9 8 8 5 5 4 3 1 2 1 1 0 0 0 -0 -0 -0 -0 -0 1 -0 -1 -1 -1 -1 -1 -1 -1 -1 -0 -1 -1 -1 -1 -1
10 10 10 10 9 9 9 9 9 9 8 7 7 5 6 5 2 1 1 1 1 0 0 0 -0 -0 0 0 1 -0 -0 -1 -1 -1 -1 -0 -0 -0 -1 -1 -1 -1 -1
9 9 9 9 9 8 9 9 8 9 10 8 7 6 6 7 4 3 3 2 1 1 1 0 0 -0 -0 -0 1 1 2 2 0 -0 -0 -0 -0 -0 -1 -1 -1 -1 -1
10 10 9 9 10 9 9 9 8 8 8 9 7 6 6 6 5 6 3 2 2 2 2 1 1 0 0 -0 0 2 3 4 2 0 -0 -0 -1 -1 -1 -1 -1 -1 -1
10 10 10 10 10 10 10 9 9 9 8 8 8 7 7 6 5 5 6 4 3 1 1 1 0 0 0 0 -0 1 4 5 4 1 0 -0 -0 -0 -0 -1 -1 -1 -1
11 11 11 11 10 10 10 10 10 9 9 8 7 7 7 7 5 5 5 5 4 3 3 2 1 1 1 0 0 2 4 5 5 3 1 1 0 -0 -0 -0 -1 -1 -1
12 12 12 12 12 11 11 11 10 10 9 9 8 8 7 6 5 5 6 6 5 3 3 1 1 0 -0 0 0 3 4 6 6 5 3 2 1 1 1 0 0 -0 -1
13 12 12 13 13 12 12 12 11 11 10 9 8 8 7 6 5 5 6 6 7 5 4 4 1 2 0 0 1 4 2 6 6 6 5 4 3 2 2 2 1 1 1
12 13 13 14 13 13 13 12 13 13 12 11 10 8 7 6 5 5 5 6 7 8 7 6 3 1 0 1 3 2 0 3 6 7 7 6 5 4 3 3 2 2 1
12 13 14 14 14 13 12 12 13 13 13 13 13 13 12 10 8 7 5 4 5 6 7 4 4 1 4 3 4 2 1 4 9 9 9 7 6 6 5 6 5 4 3
13 13 13 14 15 15 14 14 13 13 14 14 12 12 13 12 12 11 10 8 6 4 5 4 2 3 8 8 6 5 4 6 7 10 10 10 9 8 7 7 7 6 6
13 14 14 14 15 15 15 16 16 15 15 15 15 13 13 13 14 14 12 11 10 7 6 4 7 8 9 11 8 6 5 6 8 9 10 11 11 12 12 12 11 10 9
13 14 15 15 15 15 16 16 17 17 16 16 15 15 13 13 14 14 14 13 11 10 10 10 10 11 8 11 9 9 7 9 9 9 10 11 11 11 11 12 12 11 11
14 14 14 14 14 15 16 17 17 18 18 18 17 16 14 13 14 14 14 13 12 12 12 13 13 13 13 11 11 11 10 11 15 13 11 11 11 12 12 13 12 12 11
14 14 15 14 13 12 14 17 17 18 18 19 18 17 16 14 12 13 15 15 15 15 14 15 15 15 16 15 14 13 11 10 14 17 13 14 13 13 13 13 13 12 12
15 16 16 16 15 12 11 13 15 17 18 18 19 18 16 15 15 14 14 14 15 16 17 16 17 17 17 16 14 13 12 13 15 15 17 16 14 15 15 15 14 14 13
16 16 17 17 16 13 12 12 14 17 17 17 17 17 16 16 16 17 16 15 15 15 15 16 17 17 17 17 16 16 15 15 17 17 16 16 16 15 14 14 13 14 14
18 18 19 17 16 14 13 13 14 19 18 18 18 17 17 16 15 16 16 18 18 16 16 16 17 17 17 17 17 16 16 14 15 17 17 17 17 17 14 14 13 13 14
19 19 19 20 18 15 13 13 15 18 19 20 18 16 17 16 14 14 18 19 18 18 15 14 13 14 15 15 16 16 19 19 20 21 18 18 18 18 16 15 14 14 13
16 15 18 18 14 17 13 13 15 16 18 18 17 18 14 15 14 15 18 18 20 20 19 19 19 17 16 16 14 17 16 18 20 22 18 19 19 19 20 16 16 16 15